Weather reports worldwide

Advertisment
Rhyl, United Kingdom (3313): temperature & dewpoint: 17.10.2020 00:00:00 - 23.10.2020 00:00:00 (BST)Rhyl, United Kingdom (3313): wind speed & gusts: 17.10.2020 00:00:00 - 23.10.2020 00:00:00 (BST)Rhyl, United Kingdom (3313): wind direction: 17.10.2020 00:00:00 - 23.10.2020 00:00:00 (BST)Rhyl, United Kingdom (3313): reduced air pressure: 17.10.2020 00:00:00 - 23.10.2020 00:00:00 (BST)Rhyl, United Kingdom (3313): visibility: 17.10.2020 00:00:00 - 23.10.2020 00:00:00 (BST)Rhyl, United Kingdom (3313): precipitation: 17.10.2020 00:00:00 - 23.10.2020 00:00:00 (BST)
Date & Time tt [°C] td [°C] ff [km/h] ff [kn] fx [km/h] fx [kn] dd ppp [hPa] vv [km] rr [mm]
23.10.2020 00:00:00 6,6 3,2 4 2 - - SE 1008,1 35 0,0
22.10.2020 23:00:00 7,0 3,1 5 3 - - S 1008,3 40 0,0
22.10.2020 22:00:00 7,4 4,1 8 4 - - S 1008,6 35 0,0
22.10.2020 21:00:00 7,3 3,5 8 4 - - SSW 1008,7 35 0,0
22.10.2020 20:00:00 8,0 3,3 9 5 - - S 1008,6 40 0,0
22.10.2020 19:00:00 8,7 4,0 5 3 - - SSW 1008,5 30 0,0
22.10.2020 18:00:00 9,4 3,7 5 3 - - WSW 1008,2 30 0,0
22.10.2020 17:00:00 10,1 5,7 5 3 - - WSW 1007,9 27 0,0
22.10.2020 16:00:00 9,9 6,4 8 4 - - SSW 1007,4 30 0,0
22.10.2020 15:00:00 10,4 6,2 13 7 - - W 1007,0 30 0,0
22.10.2020 14:00:00 10,6 7,0 13 7 - - W 1006,9 23 0,0
22.10.2020 13:00:00 10,3 7,7 13 7 - - W 1006,7 26 0,0
22.10.2020 12:00:00 10,7 7,3 11 6 - - W 1006,3 29 0,0
22.10.2020 11:00:00 10,1 7,2 15 8 - - WSW 1005,8 27 0,0
22.10.2020 10:00:00 9,8 7,6 15 8 - - WSW 1005,1 29 0,0
22.10.2020 09:00:00 9,4 7,1 15 8 - - WSW 1004,3 24 0,0
22.10.2020 08:00:00 9,0 6,7 13 7 - - WSW 1003,4 26 0,0
22.10.2020 07:00:00 9,2 6,7 11 6 - - SW 1002,8 30 0,0
22.10.2020 06:00:00 9,5 6,2 11 6 - - SW 1002,4 18 0,0
22.10.2020 05:00:00 9,6 5,9 9 5 - - SW 1001,9 35 0,0
22.10.2020 04:00:00 9,6 5,6 15 8 - - WSW 1001,6 40 0,0
22.10.2020 03:00:00 9,3 6,0 5 3 - - W 1001,4 35 0,0
22.10.2020 02:00:00 9,6 5,8 15 8 - - W 1001,0 40 0,0
22.10.2020 01:00:00 9,5 7,1 15 8 - - W 1000,5 35 0,0
22.10.2020 00:00:00 9,7 7,3 9 5 - - WSW 1000,1 35 0,0
21.10.2020 23:00:00 10,1 8,0 13 7 - - W 999,7 30 0,0
21.10.2020 22:00:00 10,6 9,5 15 8 - - W 998,8 13 0,0
21.10.2020 21:00:00 11,5 9,7 15 8 - - WSW 998,2 26 0,2
21.10.2020 20:00:00 12,1 9,8 11 6 - - WSW 997,4 45 0,0
21.10.2020 19:00:00 11,9 10,3 8 4 - - SSW 996,7 40 0,0
21.10.2020 18:00:00 12,9 10,2 11 6 - - SW 995,7 35 0,0
21.10.2020 17:00:00 13,6 10,2 15 8 - - W 994,9 30 0,0
21.10.2020 16:00:00 13,7 9,4 11 6 - - SW 994,1 35 0,0
21.10.2020 15:00:00 15,0 11,9 8 4 - - WSW 993,5 40 0,0
21.10.2020 14:00:00 14,1 12,8 2 1 - - SSE 993,1 40 1,2
21.10.2020 13:00:00 12,7 11,9 9 5 - - W 993,0 4,3 0,0
21.10.2020 12:00:00 13,3 12,2 9 5 - - NW 992,9 6 0,0
21.10.2020 11:00:00 14,4 12,9 4 2 - - SSW 992,6 27 0,0
21.10.2020 10:00:00 13,3 12,5 5 3 - - SSE 992,6 24 0,0
21.10.2020 09:00:00 12,1 11,8 4 2 - - S 993,2 14 0,0
21.10.2020 08:00:00 12,3 11,7 4 2 - - NE 992,8 14 0,2
21.10.2020 07:00:00 12,6 12,0 9 5 - - SE 992,7 29 0,0
21.10.2020 06:00:00 12,5 12,0 9 5 - - SSE 993,0 24 0,2
21.10.2020 05:00:00 12,3 11,8 4 2 - - SE 993,5 26 0,0
21.10.2020 04:00:00 12,2 11,7 5 3 - - SE 994,2 6 0,6
21.10.2020 03:00:00 12,1 11,6 4 2 - - E 994,6 2,7 0,0
21.10.2020 02:00:00 12,3 11,6 9 5 - - SE 994,9 5 0,2
21.10.2020 01:00:00 12,7 10,7 13 7 - - SE 995,2 21 0,0
21.10.2020 00:00:00 13,5 9,9 9 5 - - SE 994,9 29 0,0
20.10.2020 23:00:00 13,3 10,1 9 5 - - S 995,2 26 0,0
20.10.2020 22:00:00 13,1 9,8 11 6 - - S 994,9 27 0,0
20.10.2020 21:00:00 13,2 10,7 9 5 - - S 995,2 29 0,0
20.10.2020 20:00:00 13,3 10,4 15 8 - - S 994,8 28 0,2
20.10.2020 19:00:00 13,8 10,4 16 9 - - S 994,5 18 0,0
20.10.2020 18:00:00 15,1 9,2 16 9 - - S 994,0 29 0,0
20.10.2020 17:00:00 15,2 9,9 15 8 - - SSE 993,8 29 0,0
20.10.2020 16:00:00 16,2 8,8 21 11 46 25 S 993,9 29 0,0
20.10.2020 15:00:00 16,3 9,3 15 8 - - S 994,2 29 0,0
20.10.2020 14:00:00 16,3 9,6 15 8 - - SSE 994,1 25 0,0
20.10.2020 13:00:00 16,0 10,2 11 6 - - SSE 994,3 30 0,0
20.10.2020 12:00:00 15,9 9,8 13 7 - - S 994,7 30 0,0
20.10.2020 11:00:00 15,3 10,3 13 7 - - SE 994,5 35 0,0
20.10.2020 10:00:00 14,4 10,6 13 7 - - SSE 994,7 35 0,0
20.10.2020 09:00:00 13,9 10,2 16 9 - - SE 994,6 40 0,0
20.10.2020 08:00:00 12,4 11,2 8 4 - - ESE 994,5 40 0,0
20.10.2020 07:00:00 10,8 9,7 5 3 - - E 994,6 30 0,0
20.10.2020 06:00:00 11,9 10,0 11 6 - - SE 994,5 40 0,0
20.10.2020 05:00:00 11,4 9,5 13 7 - - SE 994,7 28 0,0
20.10.2020 04:00:00 11,2 8,9 22 12 - - SSE 995,2 25 0,0
20.10.2020 03:00:00 10,3 8,5 13 7 - - SE 995,8 21 0,0
20.10.2020 02:00:00 11,4 7,7 21 11 - - SE 996,9 27 0,0
20.10.2020 01:00:00 11,7 7,4 15 8 - - SSE 998,6 28 0,0
20.10.2020 00:00:00 11,6 7,1 5 3 - - SE 999,8 30 0,0
19.10.2020 23:00:00 11,7 6,8 11 6 - - SE 1000,5 30 0,0
19.10.2020 22:00:00 11,1 5,9 5 3 - - SE 1001,5 40 0,0
19.10.2020 21:00:00 11,6 5,3 13 7 - - SSE 1002,3 45 0,0
19.10.2020 20:00:00 12,2 6,4 8 4 - - SE 1003,6 40 0,0
19.10.2020 19:00:00 12,2 7,8 9 5 - - SE 1004,8 27 0,0
19.10.2020 18:00:00 12,1 8,3 8 4 - - ESE 1005,3 22 0,0
19.10.2020 17:00:00 12,1 8,5 4 2 - - E 1005,9 20 0,0
19.10.2020 16:00:00 12,1 8,8 5 3 - - ESE 1007,1 20 0,0
19.10.2020 15:00:00 11,9 8,8 5 3 - - SE 1008,2 16 0,0
19.10.2020 14:00:00 11,6 8,1 9 5 - - SE 1009,2 18 0,0
19.10.2020 13:00:00 11,9 7,7 11 6 - - SE 1010,0 24 0,0
19.10.2020 12:00:00 11,3 7,8 8 4 - - SE 1011,1 21 0,0
19.10.2020 11:00:00 11,1 7,0 15 8 - - S 1012,2 22 0,0
19.10.2020 10:00:00 11,0 6,9 9 5 - - S 1012,6 23 0,0
19.10.2020 09:00:00 11,0 6,7 11 6 - - SE 1012,7 15 0,0
19.10.2020 08:00:00 10,7 6,7 18 10 - - S 1013,1 23 0,0
19.10.2020 07:00:00 10,1 6,7 9 5 - - ESE 1014,1 20 0,0
19.10.2020 06:00:00 10,5 6,5 11 6 - - SSE 1014,9 21 0,0
19.10.2020 05:00:00 10,7 6,7 11 6 - - SE 1016,0 15 0,0
19.10.2020 04:00:00 10,7 7,2 8 4 - - SE 1017,0 20 0,0
19.10.2020 03:00:00 9,5 6,8 9 5 - - ESE 1017,6 16 0,0
19.10.2020 02:00:00 10,1 6,8 9 5 - - SE 1018,2 20 0,0
19.10.2020 01:00:00 10,3 6,8 11 6 - - SSW 1018,7 19 0,0
19.10.2020 00:00:00 10,2 6,7 11 6 - - S 1019,1 21 0,0
18.10.2020 23:00:00 9,7 6,7 9 5 - - S 1019,3 15 0,0
18.10.2020 22:00:00 10,1 6,8 8 4 - - SSE 1020,0 16 0,0
18.10.2020 21:00:00 10,1 6,8 4 2 - - SSE 1020,8 19 0,0
18.10.2020 20:00:00 10,2 6,6 5 3 - - SSW 1021,5 21 0,0
18.10.2020 19:00:00 10,5 6,3 9 5 - - SSW 1021,8 35 0,0
18.10.2020 18:00:00 10,8 6,2 11 6 - - SSW 1021,5 35 0,0
18.10.2020 17:00:00 11,2 5,9 8 4 - - SW 1021,6 45 0,0
18.10.2020 16:00:00 12,0 6,6 5 3 - - SW 1022,0 30 0,0
18.10.2020 15:00:00 12,3 5,9 2 1 - - WSW 1022,5 45 0,0
18.10.2020 14:00:00 11,6 6,1 5 3 - - NNW 1023,2 45 0,0
18.10.2020 13:00:00 12,9 5,9 5 3 - - WSW 1023,6 30 0,0
18.10.2020 12:00:00 12,2 7,9 4 2 - - NE 1024,1 35 0,0
18.10.2020 11:00:00 10,8 7,6 2 1 - - SSW 1024,5 24 0,0
18.10.2020 10:00:00 9,4 6,9 4 2 - - SSW 1024,7 20 0,0
18.10.2020 09:00:00 8,9 6,8 5 3 - - SSW 1024,4 16 0,0
18.10.2020 08:00:00 8,7 7,0 8 4 - - S 1024,0 13 0,0
18.10.2020 07:00:00 8,7 7,6 8 4 - - S 1024,0 9 0,0
18.10.2020 06:00:00 8,2 7,4 4 2 - - S 1024,1 9 0,0
18.10.2020 05:00:00 8,4 7,5 4 2 - - ESE 1024,0 9 0,0
18.10.2020 04:00:00 8,5 7,6 4 2 - - S 1024,2 12 0,0
18.10.2020 03:00:00 8,7 7,7 4 2 - - S 1024,5 15 0,0
18.10.2020 02:00:00 8,6 7,8 4 2 - - SE 1024,7 13 0,0
18.10.2020 01:00:00 8,8 7,8 5 3 - - S 1024,7 18 0,0
18.10.2020 00:00:00 8,8 7,9 4 2 - - ESE 1024,7 15 0,0
17.10.2020 23:00:00 9,0 7,9 4 2 - - SSW 1024,5 13 0,0
17.10.2020 22:00:00 9,2 7,7 2 1 - - SSW 1024,2 30 0,0
17.10.2020 21:00:00 9,1 7,6 5 3 - - S 1024,1 35 0,0
17.10.2020 20:00:00 9,0 7,7 4 2 - - SSW 1023,9 40 0,0
17.10.2020 19:00:00 8,6 7,3 4 2 - - SSW 1023,8 27 0,0
17.10.2020 18:00:00 9,0 7,1 2 1 - - SSW 1023,4 55 0,0
17.10.2020 17:00:00 9,8 7,0 2 1 - - SW 1023,3 65 0,0
17.10.2020 16:00:00 10,1 6,6 5 3 - - NE 1023,6 75 0,0
17.10.2020 15:00:00 10,9 6,4 8 4 - - NNE 1023,7 75 0,0
17.10.2020 14:00:00 10,7 5,9 9 5 - - NNE 1023,9 75 0,0
17.10.2020 13:00:00 10,1 5,5 4 2 - - N 1024,3 55 0,0
17.10.2020 12:00:00 11,2 6,2 2 1 - - S 1024,5 75 0,0
17.10.2020 11:00:00 8,4 6,2 4 2 - - E 1024,8 45 0,0
17.10.2020 10:00:00 7,5 6,8 4 2 - - SSW 1024,9 23 0,0
17.10.2020 09:00:00 6,1 6,0 2 1 - - S 1024,9 11 0,0
17.10.2020 08:00:00 4,2 4,0 4 2 - - S 1024,8 8 0,0
17.10.2020 07:00:00 3,5 3,1 2 1 - - SW 1024,7 4,2 0,0
17.10.2020 06:00:00 4,5 4,0 0 0 - - N 1024,9 2,9 0,0
17.10.2020 05:00:00 5,6 4,5 2 1 - - SSW 1024,8 4,7 0,0
17.10.2020 04:00:00 7,7 6,8 2 1 - - NE 1025,0 7 0,0
17.10.2020 03:00:00 8,0 6,9 2 1 - - W 1025,4 8 0,0
17.10.2020 02:00:00 8,5 6,8 4 2 - - SSE 1025,4 11 0,0
17.10.2020 01:00:00 9,5 6,9 4 2 - - E 1025,7 17 0,0
17.10.2020 00:00:00 9,6 7,1 4 2 - - SE 1026,0 29 0,0

tt = temperature
td = dewpoint
ff = wind speed
fx = gusts
dd = wind direction
ppp = reduced air pressure
vv = visibility
rr = precipitation

Next stations